FW6411 Weather Reports


time (UTC)temp
C
wind
direction
speed
KPH
gust
KPH
rain 1hr
cm
rain 24hr
cm
rain mn
cm
humidity
%
barometer
mb
20260504100507 3 138 9.7 32.2 0.05 1.93 0.28 90 982.0
20260504082005 3 123 12.9 32.2 0.03 1.88 0.20 91 978.0
20260504081508 3 348 14.5 32.2 0.03 1.88 0.20 91 977.9
20260504081005 3 7 17.7 32.2 0.03 1.88 0.20 91 977.8
20260504080509 3 180 14.5 35.4 0.05 1.88 0.20 91 977.8
20260504050505 3 140 24.1 40.2 0.05 1.75 0.08 93 974.9
20260504050009 3 130 22.5 41.8 0.05 1.75 0.08 93 975.0
20260504045606 3 164 24.1 41.8 0.05 1.75 0.08 93 975.2
20260504045004 3 125 24.1 43.5 0.05 1.75 0.05 93 975.9
20260504044514 3 147 20.9 43.5 0.05 1.75 0.05 92 976.4
20260504044105 3 159 20.9 40.2 0.05 1.75 0.05 92 976.5
20260504043507 3 128 22.5 40.2 0.05 1.73 0.05 92 976.8
20260504043020 3 130 17.7 32.2 0.05 1.73 0.05 92 976.9
20260504042505 3 190 16.1 40.2 0.05 1.73 0.05 92 977.3
20260504042009 3 147 19.3 40.2 0.03 1.70 0.03 92 977.6
20260504041604 3 134 19.3 46.7 0.03 1.70 0.03 91 977.8
20260504041007 3 125 22.5 46.7 0.03 1.70 0.03 91 977.9
20260504040512 3 147 30.6 46.7 0.03 1.70 0.03 91 978.1
20260504040005 3 157 22.5 49.9 0.03 1.70 0.03 91 978.3
20260504035508 4 136 29.0 49.9 0.03 1.70 0.03 90 978.6
20260504034507 4 141 24.1 43.5 0.00 1.68 0.00 90 979.0
20260504034010 4 115 24.1 41.8 0.00 1.68 0.00 90 979.5
20260504033506 4 130 20.9 48.3 0.00 1.68 0.00 89 979.5
20260504033010 4 128 22.5 51.5 0.00 1.68 0.00 89 979.8
20260504032505 4 237 24.1 46.7 0.00 1.68 0.00 89 979.8
20260504032010 4 145 20.9 41.8 0.00 1.68 0.00 88 980.0
20260504031511 4 167 20.9 43.5 0.00 1.68 0.00 88 980.2
20260504031007 5 123 20.9 43.5 0.00 1.68 0.00 87 980.5
20260504030510 5 74 24.1 43.5 0.00 1.68 0.00 87 980.9
20260504030004 5 127 19.3 40.2 0.00 1.68 0.00 88 980.8
20260504025508 5 127 22.5 40.2 0.00 1.68 1.68 88 981.3
20260504025004 5 164 14.5 32.2 0.00 1.68 1.68 88 981.4
20260504024508 5 196 17.7 32.2 0.00 1.68 1.68 88 981.9
20260504023506 5 137 9.7 35.4 0.00 1.68 1.68 88 982.1
20260504023009 5 143 14.5 37.0 0.00 1.68 1.68 89 982.4
20260504022505 5 119 19.3 37.0 0.00 1.68 1.68 89 982.6
20260504022009 5 29 14.5 32.2 0.00 1.68 1.68 90 982.8
20260504021512 5 136 12.9 41.8 0.03 1.68 1.68 90 983.0
20260504021006 5 157 17.7 30.6 0.03 1.68 1.68 91 983.2
20260504020511 5 127 11.3 25.7 0.03 1.68 1.68 91 983.2
20260504020006 6 112 9.7 29.0 0.05 1.68 1.68 92 983.5
20260504015511 6 152 12.9 29.0 0.05 1.68 1.68 92 983.8
20260504015005 6 151 9.7 30.6 0.05 1.68 1.68 93 984.0
20260504014510 6 51 9.7 33.8 0.08 1.68 1.68 93 983.9
20260504014004 6 121 16.1 33.8 0.08 1.68 1.68 94 984.1
20260504013508 6 124 14.5 33.8 0.10 1.68 1.68 94 984.2
20260504013010 5 174 19.3 35.4 0.13 1.68 1.68 94 984.3
20260504012513 5 133 19.3 35.4 0.13 1.68 1.68 95 984.5
20260504012004 5 98 11.3 29.0 0.15 1.68 1.68 94 984.6
20260504011509 5 128 12.9 27.4 0.15 1.65 1.65 94 984.7
20260504011006 5 133 14.5 27.4 0.18 1.65 1.65 94 984.8
20260504010514 5 114 11.3 32.2 0.20 1.65 1.65 94 985.0
20260504010003 4 105 11.3 32.2 0.20 1.65 1.65 94 985.1
20260504005508 4 121 9.7 30.6 0.23 1.65 1.65 94 985.5
20260504005003 4 83 8.0 30.6 0.23 1.63 1.63 94 985.8
20260504004508 4 134 11.3 30.6 0.23 1.60 1.60 94 986.2
20260504004003 4 148 8.0 24.1 0.23 1.57 1.57 94 986.0
20260504003508 4 104 9.7 25.7 0.25 1.57 1.57 94 986.8
20260504003003 4 61 9.7 27.4 0.25 1.55 1.55 94 986.9
20260504002507 3 50 11.3 27.4 0.28 1.55 1.55 94 987.1
20260504002104 3 178 9.7 37.0 0.30 1.55 1.55 94 987.5
20260504001608 3 174 8.0 37.0 0.33 1.50 1.50 94 987.9
20260504001010 3 116 9.7 32.2 0.33 1.42 1.42 94 988.2
20260504000506 3 275 14.5 32.2 0.36 1.42 1.42 94 988.4
20260504000006 3 131 9.7 27.4 0.41 1.42 1.42 94 988.8
20260503235006 3 160 11.3 29.0 0.43 1.37 1.37 94 989.2
20260503234602 3 37 12.9 33.8 0.43 1.37 1.37 94 989.1
20260503234006 3 24 12.9 46.7 0.48 1.37 1.37 94 989.2
20260503233510 3 17 12.9 46.7 0.46 1.32 1.32 94 989.4
20260503233005 3 51 14.5 27.4 0.46 1.30 1.30 94 989.8
20260503232509 3 17 16.1 30.6 0.43 1.27 1.27 94 990.2
20260503232004 3 99 9.7 30.6 0.43 1.22 1.22 94 990.8
20260503231507 3 14 11.3 25.7 0.43 1.17 1.17 94 991.3
20260503231103 3 24 11.3 25.7 0.43 1.14 1.14 94 991.7
20260503230505 3 122 9.7 27.4 0.41 1.09 1.09 94 991.9
20260503230012 3 74 9.7 25.7 0.38 1.02 1.02 94 992.3
20260503225506 3 112 8.0 22.5 0.36 0.99 0.99 94 992.9
20260503225008 3 120 6.4 20.9 0.36 0.94 0.94 94 993.2
20260503224604 3 133 8.0 20.9 0.38 0.91 0.91 94 993.5
20260503224009 3 350 4.8 22.5 0.41 0.89 0.89 94 993.9
20260503223604 3 152 4.8 22.5 0.43 0.86 0.86 94 994.1
20260503223006 3 121 6.4 22.5 0.43 0.84 0.84 94 994.4
20260503222510 3 166 6.4 22.5 0.48 0.81 0.81 94 994.7
20260503222006 3 86 6.4 24.1 0.51 0.79 0.79 94 994.8
20260503221511 3 117 8.0 24.1 0.56 0.76 0.76 94 995.1
20260503221004 3 109 4.8 24.1 0.51 0.71 0.71 94 995.2
20260503220509 3 249 4.8 24.1 0.51 0.66 0.66 94 995.4
20260503220004 3 67 6.4 24.1 0.51 0.64 0.64 94 995.6
20260503215508 3 84 8.0 25.7 0.51 0.61 0.61 94 995.6
20260503215006 3 81 3.2 25.7 0.51 0.58 0.58 94 995.6
20260503214508 3 95 3.2 14.5 0.43 0.51 0.51 94 995.8
20260503214103 3 118 3.2 20.9 0.41 0.48 0.48 94 996.1
20260503213507 3 114 8.0 20.9 0.33 0.43 0.43 94 996.1
20260503213004 2 101 4.8 20.9 0.33 0.41 0.41 94 996.1
20260503212508 2 106 6.4 19.3 0.25 0.33 0.33 94 996.0
20260503211506 2 138 11.3 25.7 0.15 0.20 0.20 94 996.2
20260503211105 2 78 6.4 25.7 0.13 0.18 0.18 94 996.3
20260503210506 2 122 11.3 24.1 0.08 0.15 0.15 94 996.8
20260503210010 2 25 8.0 24.1 0.08 0.15 0.15 94 997.4
20260503205504 2 84 12.9 27.4 0.05 0.10 0.10 94 997.8
20260503205010 2 109 12.9 27.4 0.03 0.08 0.08 94 998.2
20260503204605 2 313 6.4 27.4 0.03 0.08 0.08 94 998.7
20260503204004 2 49 6.4 27.4 0.05 0.08 0.08 93 998.8
20260503203509 2 94 4.8 19.3 0.05 0.08 0.08 93 999.4
20260503203005 2 65 6.4 19.3 0.05 0.08 0.08 93 999.3
20260503202509 2 33 4.8 19.3 0.05 0.08 0.08 93 999.3
20260503202005 2 48 4.8 19.3 0.03 0.05 0.05 93 999.9
20260503201510 2 114 8.0 19.3 0.03 0.05 0.05 93 1000.6
20260503201005 2 138 6.4 19.3 0.03 0.05 0.05 93 1001.1
20260503200510 2 60 4.8 19.3 0.03 0.05 0.05 93 1001.0
20260503200007 2 93 8.0 19.3 0.03 0.05 0.05 92 1001.3
20260503195604 2 15 4.8 17.7 0.03 0.05 0.05 92 1001.3
20260503195008 2 39 6.4 20.9 0.03 0.05 0.05 92 1001.5
20260503194503 2 104 6.4 20.9 0.03 0.05 0.05 92 1002.0
20260503194104 2 190 6.4 19.3 0.00 0.05 0.05 92 1002.1
20260503193506 2 92 4.8 14.5 0.03 0.05 0.05 92 1002.4
20260503193112 2 159 1.6 19.3 0.03 0.05 0.05 91 1002.0
20260503192505 2 83 11.3 27.4 0.03 0.05 0.05 91 1001.6
20260503192009 2 17 9.7 22.5 0.03 0.05 0.05 90 1002.1
20260503191503 2 25 9.7 22.5 0.03 0.05 0.05 90 1002.4
20260503191008 3 33 9.7 19.3 0.03 0.05 0.05 90 1002.8
20260503190504 3 50 6.4 17.7 0.03 0.05 0.05 89 1003.2
20260503190022 3 95 6.4 17.7 0.03 0.05 0.05 89 1004.0
20260503185504 3 164 3.2 16.1 0.03 0.05 0.05 90 1004.5
20260503185009 3 93 6.4 16.1 0.03 0.05 0.05 89 1003.8
20260503184508 3 14 3.2 14.5 0.03 0.05 0.05 89 1004.1
20260503184008 4 26 6.4 19.3 0.03 0.05 0.05 88 1004.7
20260503183503 4 53 4.8 19.3 0.00 0.03 0.03 87 1005.3
20260503183014 4 100 6.4 14.5 0.00 0.03 0.03 87 1005.7
20260503182604 4 35 4.8 12.9 0.00 0.03 0.03 86 1005.9
20260503182007 4 64 3.2 16.1 0.00 0.03 0.03 85 1006.0
20260503181505 4 82 4.8 14.5 0.00 0.03 0.03 84 1006.0
20260503181009 5 357 6.4 17.7 0.00 0.03 0.03 83 1005.9
20260503180505 5 3 8.0 16.1 0.00 0.03 0.03 82 1006.2
20260503180011 5 29 6.4 14.5 0.00 0.03 0.03 82 1006.6
20260503175504 5 19 6.4 16.1 0.00 0.03 0.03 81 1007.2
20260503175010 5 31 6.4 16.1 0.00 0.03 0.03 80 1007.4
20260503174505 5 109 4.8 11.3 0.00 0.03 0.03 79 1008.0
20260503174009 5 54 3.2 12.9 0.00 0.03 0.03 79 1008.2
20260503173503 5 43 4.8 12.9 0.00 0.03 0.03 79 1008.2
20260503173009 5 115 6.4 12.9 0.00 0.03 0.03 79 1008.2
20260503172504 5 65 3.2 9.7 0.00 0.03 0.03 79 1008.6
20260503172008 5 12 3.2 9.7 0.00 0.03 0.03 79 1008.7
20260503171503 5 81 1.6 9.7 0.00 0.03 0.03 79 1008.8
20260503171008 5 72 4.8 12.9 0.00 0.03 0.03 78 1008.7
20260503170503 5 33 6.4 14.5 0.00 0.03 0.03 78 1008.5
20260503151004 7 16 6.4 11.3 0.00 0.03 0.03 72 1011.0
20260503150509 8 359 4.8 11.3 0.00 0.03 0.03 71 1011.0
20260503131009 8 95 3.2 14.5 0.00 0.03 0.03 70 1012.2
20260503130507 8 156 1.6 14.5 0.00 0.03 0.03 70 1012.2
20260503110504 3 89 0.0 3.2 0.00 0.03 0.03 95 1014.5